Home   Weather   Warren   Past weeks

Flag for USA Past Weather in Warren, Michigan, USA — Yesterday and Last 2 Weeks

Now
66 °F

Clear.


Feels Like: 66 °F
Forecast: 52 / 70 °F
Wind: 8 mph from Southeast

Location: Detroit City Airport

Current Time: Apr 26, 2017 at 9:31:54 pm

Latest Report: Apr 26, 2017 at 8:53 pm


Visibility: 10 mi

Pressure: 29.54 "Hg

Humidity: 65%

Dew Point: 54 °F

Location of WarrenLocation

Past Weather in Warren — Graph

°F

Warren Temperature Yesterday

Maximum temperature yesterday: 68 °F (at 4:53 pm)
Minimum temperature yesterday: 50 °F (at 2:53 am)
Average temperature yesterday: 57 °F

High & Low Weather Summary for the Past Weeks

 TemperatureHumidityPressure
High82 °F (Apr 15, 3:53 pm)100% (Apr 20, 12:53 pm)30.51 "Hg (Apr 20, 12:53 pm)
Low36 °F (Apr 23, 5:53 am)26% (Apr 17, 1:53 pm)29.54 "Hg (Apr 26, 6:53 pm)
Average54 °F67%30.07 "Hg
* Reported Apr 11 7:53 pm — Apr 26 7:53 pm, Warren, Weather by CustomWeather, © 2017

Note: Actual official high and low records may vary slightly from our data, if they occured in-between our weather recording intervals... More about our weather records

Advertising

Warren Weather History for the Previous 24 Hours

Scroll right to see more
 ConditionsComfort  
Time TempWeatherWind HumidityBarometerVisibility
7:53 pm
Wed, Apr 26
68 °FSunny.6 mph63%29.54 "Hg10 mi
6:53 pm71 °FSunny.13 mph59%29.54 "Hg10 mi
5:53 pm73 °FSunny.13 mph59%29.55 "Hg10 mi
4:53 pm78 °FSunny.13 mph52%29.56 "Hg10 mi
3:53 pm76 °FSunny.20 mph54%29.57 "Hg10 mi
2:53 pm75 °FSunny.17 mph58%29.58 "Hg10 mi
1:53 pm73 °FSunny.15 mph62%29.59 "Hg10 mi
12:53 pm70 °FSunny.13 mph66%29.64 "Hg10 mi
11:53 am67 °FSunny.10 mph71%29.67 "Hg10 mi
10:53 am65 °FSunny.16 mph76%29.69 "Hg10 mi
9:53 am62 °FSunny.12 mph80%29.69 "Hg10 mi
7:53 am55 °FSunny.8 mph94%29.73 "Hg10 mi
6:53 am52 °FSunny.6 mph97%29.71 "Hg7 mi
5:53 am51 °FFog.3 mph96%29.72 "Hg3 mi
4:53 am52 °FClear.No wind93%29.71 "Hg10 mi
3:53 am52 °FClear.7 mph97%29.71 "Hg10 mi
2:53 am54 °FClear.6 mph94%29.75 "Hg10 mi
12:53 am54 °FClear.6 mph86%29.74 "Hg10 mi
11:53 pm
Tue, Apr 25
54 °FClear.8 mph86%29.75 "Hg10 mi
10:53 pm55 °FClear.10 mph88%29.75 "Hg10 mi
9:53 pm56 °FClear.9 mph84%29.74 "Hg10 mi
Weather by CustomWeather, © 2017

See weather overviewHow to use our weather pages